Regional Weather Roundup
Issued by NWS

Home | Current Version | Previous Version | Graphics & Text | Print | Product List | Glossary On
Versions: 1 2 3 4 5 6 7 8 9 10 11 12 13 14 15 16 17 18 19 20 21 22 23 24 25 26 27 28 29 30 31 32 33 34 35 36 37 38 39 40 41 42 43 44 45 46 47 48 49 50
000
ASUS43 KOAX 220010
RWRNE

WEATHER ROUNDUP FOR NEBRASKA
NATIONAL WEATHER SERVICE OMAHA NE
600 PM CST TUE FEB 21 2017

NOTES: SATELLITE DATA IS BEING USED TO AUGMENT CLOUD COVER ABOVE
       12000 FEET.
       "FAIR" INDICATES FEW OR NO CLOUDS BELOW 12,000 FEET WITH NO
       SIGNIFICANT WEATHER AND/OR OBSTRUCTIONS TO VISIBILITY.

  * THESE STATIONS DO NOT REPORT WEATHER SUCH AS RAIN...SNOW OR FOG.

NEZ001>004-019>022-054>056-220100-
NEBRASKA PANHANDLE

CITY           SKY/WX    TMP DP  RH WIND       PRES   REMARKS
SCOTTSBLUFF    CLEAR     68  18  14 W18G31    29.83S
6HR MIN TEMP:  68; 6HR MAX TEMP:  73;

ALLIANCE       CLEAR     66  18  15 W24G31    29.81F
6HR MIN TEMP:  66; 6HR MAX TEMP:  73;

CHADRON        CLEAR     65  24  21 W22G30    29.76S
6HR MIN TEMP:  65; 6HR MAX TEMP:  72;

KIMBALL        CLEAR     65  23  19 W21G30    29.90F
SIDNEY         CLEAR     67  11  11 W18       29.88F
6HR MIN TEMP:  67; 6HR MAX TEMP:  74;

$$

NEZ057>060-069>072-079>082-220100-
SOUTHWEST NEBRASKA

CITY           SKY/WX    TMP DP  RH WIND       PRES   REMARKS
NORTH PLATTE   CLEAR     71  24  17 W10       29.81S
6HR MIN TEMP:  69; 6HR MAX TEMP:  79;

IMPERIAL       CLEAR     71  14  11 W6        29.85F
6HR MIN TEMP:  70; 6HR MAX TEMP:  78;

LEXINGTON      CLEAR     70  29  21 SW7       29.81F
MCCOOK         CLEAR     72  26  18 SW8       29.84F
6HR MIN TEMP:  67; 6HR MAX TEMP:  80;

OGALLALA       CLEAR     71  18  13 W12       29.84S
$$

NEZ005>010-023>029-035>040-094-220100-
NORTH CENTRAL NEBRASKA

CITY           SKY/WX    TMP DP  RH WIND       PRES   REMARKS
VALENTINE      CLEAR     69  27  20 W13       29.72F
6HR MIN TEMP:  69; 6HR MAX TEMP:  75;

AINSWORTH      CLEAR     67  34  30 W6        29.74S
BROKEN BOW     CLEAR     70  31  23 W8        29.78F
6HR MIN TEMP:  69; 6HR MAX TEMP:  77;

O`NEILL        CLEAR     69  34  27 SW6       29.73F
ORD            CLEAR     70  28  21 SW6       29.75F
6HR MIN TEMP:  70; 6HR MAX TEMP:  78;

THEDFORD       CLEAR     72  27  18 W17G28    29.78S
$$

NEZ041-046>049-061>064-073>077-083>087-220100-
SOUTH CENTRAL NEBRASKA

CITY           SKY/WX    TMP DP  RH WIND       PRES   REMARKS
GRAND ISLAND   CLEAR     69  34  27 W7        29.80S
6HR MIN TEMP:  66; 6HR MAX TEMP:  77;

AURORA         CLEAR     68  32  26 SW8       29.80S
HASTINGS       CLEAR     71  30  21 SW5       29.82F
6HR MIN TEMP:  66; 6HR MAX TEMP:  77;

HEBRON         CLEAR     69  25  19 S8        29.84R
HOLDREGE       CLEAR     72  23  15 SW7       29.83S
KEARNEY *      CLEAR     73  28  19 W5        29.82S
YORK           CLEAR     68  30  24 S8        29.80F
$$

NEZ011>018-030>034-042>045-220100-
NORTHEAST NEBRASKA

CITY           SKY/WX    TMP DP  RH WIND       PRES   REMARKS
NORFOLK        CLEAR     65  34  31 S10       29.74S
6HR MIN TEMP:  64; 6HR MAX TEMP:  74;

ALBION         CLEAR     71  31  22 W5        29.77R
BLAIR          CLEAR     66  35  31 S10       29.80F
FREMONT        CLEAR     69  32  25 S7        29.79F
TEKAMAH        CLEAR     61  41  47 S12       29.77F
6HR MIN TEMP:  61; 6HR MAX TEMP:  73;

WAYNE          CLEAR     64  35  34 SW10      29.74S
$$

NEZ050>053-065>068-078-088>093-220100-
SOUTHEAST NEBRASKA

CITY           SKY/WX    TMP DP  RH WIND       PRES   REMARKS
LINCOLN        CLEAR     66  30  26 S9        29.82F
6HR MIN TEMP:  66; 6HR MAX TEMP:  76;

OMAHA EPPLEY   PTCLDY    67  37  33 S13       29.81S
6HR MIN TEMP:  61; 6HR MAX TEMP:  72;

BEATRICE       CLEAR     68  32  26 S9        29.85S
FALLS CITY     CLEAR     64  35  34 S6        29.87F
6HR MIN TEMP:  59; 6HR MAX TEMP:  70;

NEBRASKA CITY  CLEAR     62  28  28 S10       29.85S
PLATTSMOUTH    CLEAR     65  30  27 S10       29.84S
$$

NEZ044-045-051>053-067-220100-
OMAHA AREA

CITY           SKY/WX    TMP DP  RH WIND       PRES   REMARKS
OMAHA EPPLEY   PTCLDY    67  37  33 S13       29.81S
6HR MIN TEMP:  61; 6HR MAX TEMP:  72;

BLAIR          CLEAR     66  35  31 S10       29.80F
FREMONT        CLEAR     69  32  25 S7        29.79F
MILLARD        CLEAR     68  39  34 SE8       29.81S
OFFUTT AFB     CLEAR     64  38  38 SE9       29.81F
PLATTSMOUTH    CLEAR     65  30  27 S10       29.84S
WAHOO          FAIR      67  29  24 S8        29.80S
$$




USA.gov is the U.S. government's official web portal to all federal, state and local government web resources and services.